UAL571 KLAX-KSAN

Flight info

Callsign UAL571
Flight time 0h 29m
Altitude 13000
Route LAXX1 MZB
Aircraft B738/M-SDE2E3FGHIRWXY/LB1

Departure

Time 2026-05-07 23:09
Airport Los Angeles International Airport (KLAX)

Arrival

Time 2026-05-07 23:38
Airport San Diego International Airport (KSAN)
Time Latitude Longitude Altitude Speed Heading
2026-05-07 22:44 33.94204 -118.40027 94 ft 0 kts 70°
2026-05-07 23:00 33.94204 -118.40028 94 ft 1 kts 70°
2026-05-07 23:00 33.94199 -118.40044 97 ft 3 kts 82°
2026-05-07 23:00 33.94199 -118.40067 92 ft 3 kts 108°
2026-05-07 23:00 33.94208 -118.40087 94 ft 3 kts 142°
2026-05-07 23:01 33.94221 -118.40095 93 ft 1 kts 172°
2026-05-07 23:01 33.94223 -118.40096 93 ft 0 kts 173°
2026-05-07 23:03 33.94210 -118.40094 94 ft 5 kts 173°
2026-05-07 23:03 33.94169 -118.40088 94 ft 7 kts 173°
2026-05-07 23:03 33.94123 -118.40081 94 ft 7 kts 172°
2026-05-07 23:04 33.94058 -118.40070 97 ft 12 kts 172°
2026-05-07 23:04 33.93963 -118.40056 97 ft 15 kts 173°
2026-05-07 23:04 33.93883 -118.40000 103 ft 14 kts 104°
2026-05-07 23:04 33.93890 -118.39885 103 ft 13 kts 84°
2026-05-07 23:05 33.93901 -118.39776 102 ft 13 kts 83°
2026-05-07 23:05 33.93912 -118.39668 101 ft 13 kts 83°
2026-05-07 23:05 33.93923 -118.39557 102 ft 14 kts 83°
2026-05-07 23:05 33.93936 -118.39430 101 ft 16 kts 82°
2026-05-07 23:06 33.93952 -118.39284 100 ft 19 kts 82°
2026-05-07 23:06 33.93967 -118.39128 101 ft 19 kts 83°
2026-05-07 23:06 33.93983 -118.38976 101 ft 18 kts 83°
2026-05-07 23:06 33.93999 -118.38820 99 ft 19 kts 83°
2026-05-07 23:07 33.94015 -118.38660 101 ft 19 kts 81°
2026-05-07 23:07 33.94032 -118.38502 102 ft 19 kts 84°
2026-05-07 23:07 33.94048 -118.38345 102 ft 19 kts 82°
2026-05-07 23:07 33.94063 -118.38189 102 ft 19 kts 84°
2026-05-07 23:08 33.94078 -118.38050 102 ft 9 kts 88°
2026-05-07 23:08 33.94051 -118.38004 105 ft 7 kts 156°
2026-05-07 23:08 33.93997 -118.38006 108 ft 10 kts 218°
2026-05-07 23:08 33.93972 -118.38141 109 ft 27 kts 264°
2026-05-07 23:09 33.93946 -118.38415 109 ft 48 kts 263°
2026-05-07 23:09 33.93870 -118.39150 105 ft 129 kts 263°
2026-05-07 23:09 33.93742 -118.40474 425 ft 175 kts 263°
2026-05-07 23:09 33.93564 -118.41957 1390 ft 191 kts 262°
2026-05-07 23:10 33.93394 -118.43549 2240 ft 201 kts 263°
2026-05-07 23:10 33.93078 -118.45302 2474 ft 227 kts 243°
2026-05-07 23:10 33.92166 -118.46946 2816 ft 249 kts 235°
2026-05-07 23:10 33.91112 -118.48689 3364 ft 265 kts 234°
2026-05-07 23:11 33.89991 -118.50501 4121 ft 272 kts 234°
2026-05-07 23:11 33.88860 -118.52352 4962 ft 277 kts 236°
2026-05-07 23:11 33.87721 -118.54245 5764 ft 282 kts 235°
2026-05-07 23:11 33.86548 -118.56170 6527 ft 289 kts 234°
2026-05-07 23:12 33.85338 -118.58120 7283 ft 293 kts 234°
2026-05-07 23:12 33.84098 -118.60086 8074 ft 297 kts 233°
2026-05-07 23:12 33.82574 -118.61774 8810 ft 303 kts 208°
2026-05-07 23:12 33.80585 -118.62560 9580 ft 302 kts 183°
2026-05-07 23:13 33.78513 -118.62299 10206 ft 301 kts 157°
2026-05-07 23:13 33.76738 -118.61029 10804 ft 297 kts 132°
2026-05-07 23:13 33.75416 -118.59139 11453 ft 296 kts 123°
2026-05-07 23:13 33.74187 -118.57102 11809 ft 310 kts 122°
2026-05-07 23:14 33.72906 -118.54913 11963 ft 330 kts 122°
2026-05-07 23:14 33.71578 -118.52618 12106 ft 348 kts 121°
2026-05-07 23:14 33.70177 -118.50174 12398 ft 360 kts 121°
2026-05-07 23:14 33.68747 -118.47669 12899 ft 364 kts 121°
2026-05-07 23:15 33.67311 -118.45153 12972 ft 365 kts 121°
2026-05-07 23:15 33.65879 -118.42641 12991 ft 364 kts 121°
2026-05-07 23:15 33.64446 -118.40130 12989 ft 364 kts 121°
2026-05-07 23:15 33.63015 -118.37620 12993 ft 364 kts 121°
2026-05-07 23:16 33.61582 -118.35108 13002 ft 364 kts 121°
2026-05-07 23:16 33.60152 -118.32601 12992 ft 365 kts 121°
2026-05-07 23:16 33.58719 -118.30090 13018 ft 365 kts 121°
2026-05-07 23:16 33.57286 -118.27578 13021 ft 365 kts 121°
2026-05-07 23:17 33.55850 -118.25062 13029 ft 365 kts 121°
2026-05-07 23:17 33.54419 -118.22554 13018 ft 365 kts 121°
2026-05-07 23:17 33.52988 -118.20048 13017 ft 364 kts 121°
2026-05-07 23:17 33.51572 -118.17567 13021 ft 364 kts 121°
2026-05-07 23:18 33.50143 -118.15065 13017 ft 364 kts 121°
2026-05-07 23:18 33.48709 -118.12554 13015 ft 364 kts 121°
2026-05-07 23:18 33.47278 -118.10049 13013 ft 364 kts 121°
2026-05-07 23:18 33.45847 -118.07545 12998 ft 364 kts 121°
2026-05-07 23:19 33.44413 -118.05035 13008 ft 364 kts 121°
2026-05-07 23:19 33.42983 -118.02536 13010 ft 364 kts 121°
2026-05-07 23:19 33.41551 -118.00032 12997 ft 364 kts 121°
2026-05-07 23:19 33.40119 -117.97527 13007 ft 364 kts 121°
2026-05-07 23:20 33.38690 -117.95026 12999 ft 364 kts 121°
2026-05-07 23:20 33.37261 -117.92526 13004 ft 364 kts 121°
2026-05-07 23:20 33.35831 -117.90021 13010 ft 364 kts 121°
2026-05-07 23:20 33.34399 -117.87512 13007 ft 364 kts 121°
2026-05-07 23:21 33.32971 -117.85006 13017 ft 364 kts 121°
2026-05-07 23:21 33.31543 -117.82498 13004 ft 365 kts 121°
2026-05-07 23:21 33.30116 -117.79988 13017 ft 365 kts 121°
2026-05-07 23:21 33.28691 -117.77478 13004 ft 365 kts 121°
2026-05-07 23:22 33.27268 -117.74969 13004 ft 365 kts 121°
2026-05-07 23:22 33.25845 -117.72457 13006 ft 365 kts 121°
2026-05-07 23:22 33.24423 -117.69948 13001 ft 365 kts 121°
2026-05-07 23:22 33.23020 -117.67469 13011 ft 364 kts 121°
2026-05-07 23:23 33.21602 -117.64960 13020 ft 365 kts 121°
2026-05-07 23:23 33.20180 -117.62443 13007 ft 365 kts 121°
2026-05-07 23:23 33.18763 -117.59931 13016 ft 365 kts 121°
2026-05-07 23:23 33.17346 -117.57418 13004 ft 365 kts 121°
2026-05-07 23:24 33.15930 -117.54908 13011 ft 365 kts 121°
2026-05-07 23:24 33.14513 -117.52395 13017 ft 365 kts 121°
2026-05-07 23:24 33.13103 -117.49891 13007 ft 365 kts 121°
2026-05-07 23:24 33.11684 -117.47372 13010 ft 365 kts 121°
2026-05-07 23:25 33.10266 -117.44853 13005 ft 365 kts 121°
2026-05-07 23:25 33.08852 -117.42341 13012 ft 365 kts 121°
2026-05-07 23:25 33.07457 -117.39859 13006 ft 365 kts 121°
2026-05-07 23:25 33.06057 -117.37371 12957 ft 354 kts 121°
2026-05-07 23:26 33.04717 -117.34999 12816 ft 336 kts 121°
2026-05-07 23:26 33.03444 -117.32757 12694 ft 317 kts 121°
2026-05-07 23:26 33.02232 -117.30634 12586 ft 304 kts 122°
2026-05-07 23:26 33.00812 -117.28811 12491 ft 297 kts 136°
2026-05-07 23:27 32.97654 -117.25721 11932 ft 294 kts 138°
2026-05-07 23:27 32.96062 -117.24193 11619 ft 291 kts 138°
2026-05-07 23:27 32.94499 -117.22684 11171 ft 290 kts 138°
2026-05-07 23:28 32.92936 -117.21165 10700 ft 290 kts 138°
2026-05-07 23:28 32.91381 -117.19648 10254 ft 288 kts 138°
2026-05-07 23:28 32.89836 -117.18138 9815 ft 286 kts 138°
2026-05-07 23:28 32.88300 -117.16635 9362 ft 285 kts 138°
2026-05-07 23:29 32.86799 -117.15166 9212 ft 270 kts 138°
2026-05-07 23:29 32.85401 -117.13798 9086 ft 252 kts 138°
2026-05-07 23:29 32.84096 -117.12521 8944 ft 235 kts 138°
2026-05-07 23:29 32.82853 -117.11303 8633 ft 229 kts 138°
2026-05-07 23:30 32.81626 -117.10101 8196 ft 229 kts 138°
2026-05-07 23:30 32.80400 -117.08902 7782 ft 228 kts 138°
2026-05-07 23:30 32.79192 -117.07721 7448 ft 223 kts 138°
2026-05-07 23:30 32.78033 -117.06474 6848 ft 227 kts 123°
2026-05-07 23:31 32.77440 -117.04731 6135 ft 234 kts 102°
2026-05-07 23:31 32.77006 -117.02846 5576 ft 237 kts 103°
2026-05-07 23:31 32.76552 -117.00960 5083 ft 237 kts 104°
2026-05-07 23:31 32.76101 -116.99109 4876 ft 223 kts 104°
2026-05-07 23:32 32.75568 -116.97452 4800 ft 209 kts 121°
2026-05-07 23:32 32.74579 -116.96209 4796 ft 207 kts 143°
2026-05-07 23:32 32.73298 -116.95499 4541 ft 202 kts 169°
2026-05-07 23:32 32.71910 -116.95465 4141 ft 200 kts 192°
2026-05-07 23:33 32.70626 -116.96019 3825 ft 195 kts 214°
2026-05-07 23:33 32.69608 -116.97075 3786 ft 197 kts 234°
2026-05-07 23:33 32.68965 -116.98489 3743 ft 193 kts 256°
2026-05-07 23:33 32.68822 -117.00033 3552 ft 186 kts 276°
2026-05-07 23:34 32.69106 -117.01521 3220 ft 185 kts 289°
2026-05-07 23:34 32.69478 -117.02974 2813 ft 184 kts 287°
2026-05-07 23:34 32.69820 -117.04386 2764 ft 170 kts 287°
2026-05-07 23:34 32.70133 -117.05678 2590 ft 156 kts 287°
2026-05-07 23:35 32.70422 -117.06871 2290 ft 144 kts 287°
2026-05-07 23:35 32.70691 -117.07970 2066 ft 130 kts 287°
2026-05-07 23:35 32.70962 -117.09075 1894 ft 145 kts 286°
2026-05-07 23:35 32.71238 -117.10213 1666 ft 142 kts 285°
2026-05-07 23:36 32.71514 -117.11343 1515 ft 143 kts 285°
2026-05-07 23:36 32.71773 -117.12461 1325 ft 142 kts 284°
2026-05-07 23:36 32.72019 -117.13576 1071 ft 137 kts 285°
2026-05-07 23:36 32.72287 -117.14657 846 ft 136 kts 286°
2026-05-07 23:37 32.72556 -117.15762 560 ft 142 kts 286°
2026-05-07 23:37 32.72841 -117.16865 312 ft 138 kts 287°
2026-05-07 23:37 32.73106 -117.17937 93 ft 131 kts 285°
2026-05-07 23:37 32.73330 -117.18857 21 ft 77 kts 285°
2026-05-07 23:38 32.73441 -117.19327 22 ft 54 kts 285°
2026-05-07 23:38 32.73544 -117.19757 26 ft 56 kts 286°
2026-05-07 23:38 32.73657 -117.20220 23 ft 54 kts 286°
2026-05-07 23:38 32.73672 -117.20390 23 ft 26 kts 239°
2026-05-07 23:39 32.73595 -117.20432 22 ft 1 kts 195°
2026-05-07 23:39 32.73587 -117.20434 22 ft 1 kts 195°
2026-05-07 23:39 32.73579 -117.20436 23 ft 1 kts 188°
2026-05-07 23:39 32.73558 -117.20446 22 ft 7 kts 218°
2026-05-07 23:40 32.73504 -117.20525 24 ft 17 kts 230°
2026-05-07 23:40 32.73428 -117.20553 23 ft 9 kts 174°
2026-05-07 23:40 32.73390 -117.20524 24 ft 4 kts 104°
2026-05-07 23:40 32.73389 -117.20485 22 ft 5 kts 90°
2026-05-07 23:41 32.73389 -117.20472 22 ft 0 kts 89°